BAW79A LROP-EGLC

Flight info

Callsign BAW79A
Flight time 2h 38m
Altitude 40000
Route SOKRU DCT ENIMA DCT NEPOT DCT DEGET DCT ABETI DCT INBED DCT BATTY DCT LOGAN
Aircraft B772/H-SDE2E3FGHIJ5LORVWXY/LB1D1

Departure

Time 2026-04-26 21:46
Airport Bucharest Henri Coandă International Airport (LROP)

Arrival

Time 2026-04-27 00:24
Airport London City Airport (EGLC)
Time Latitude Longitude Altitude Speed Heading
2026-04-26 21:29 44.56953 26.10005 332 ft 0 kts 174°
2026-04-26 21:38 44.56999 26.09999 327 ft 6 kts 184°
2026-04-26 21:38 44.57026 26.10016 327 ft 3 kts 234°
2026-04-26 21:38 44.57034 26.10037 327 ft 0 kts 267°
2026-04-26 21:41 44.57033 26.10032 327 ft 4 kts 259°
2026-04-26 21:41 44.57014 26.09828 331 ft 37 kts 264°
2026-04-26 21:41 44.56990 26.09501 328 ft 35 kts 264°
2026-04-26 21:41 44.56964 26.09153 329 ft 32 kts 264°
2026-04-26 21:42 44.56941 26.08849 330 ft 31 kts 264°
2026-04-26 21:42 44.56930 26.08707 329 ft 0 kts 264°
2026-04-26 21:42 44.56930 26.08706 329 ft 0 kts 264°
2026-04-26 21:43 44.56930 26.08705 329 ft 0 kts 264°
2026-04-26 21:43 44.56930 26.08703 329 ft 0 kts 264°
2026-04-26 21:43 44.56925 26.08651 331 ft 18 kts 260°
2026-04-26 21:44 44.56811 26.08566 328 ft 20 kts 175°
2026-04-26 21:44 44.56727 26.08577 327 ft 0 kts 174°
2026-04-26 21:45 44.56680 26.08583 329 ft 20 kts 174°
2026-04-26 21:45 44.56556 26.08608 321 ft 10 kts 146°
2026-04-26 21:46 44.56544 26.08667 320 ft 12 kts 90°
2026-04-26 21:46 44.56569 26.09047 320 ft 87 kts 84°
2026-04-26 21:46 44.56673 26.10412 324 ft 190 kts 84°
2026-04-26 21:46 44.56813 26.12206 1805 ft 175 kts 84°
2026-04-26 21:47 44.56941 26.13984 3187 ft 192 kts 84°
2026-04-26 21:47 44.57090 26.15964 4297 ft 217 kts 84°
2026-04-26 21:47 44.57264 26.18175 5403 ft 240 kts 83°
2026-04-26 21:47 44.57515 26.20598 6548 ft 260 kts 73°
2026-04-26 21:48 44.58508 26.22810 7620 ft 284 kts 40°
2026-04-26 21:48 44.60333 26.24018 8837 ft 300 kts
2026-04-26 21:48 44.62424 26.23735 10233 ft 310 kts 338°
2026-04-26 21:48 44.64218 26.22015 11608 ft 318 kts 311°
2026-04-26 21:49 44.65491 26.19428 12931 ft 326 kts 299°
2026-04-26 21:49 44.66600 26.16603 14181 ft 334 kts 299°
2026-04-26 21:49 44.67719 26.13799 16110 ft 319 kts 301°
2026-04-26 21:49 44.68805 26.11078 17589 ft 322 kts 301°
2026-04-26 21:50 44.69914 26.08269 18507 ft 335 kts 301°
2026-04-26 21:50 44.70662 26.06348 19038 ft 342 kts 301°
2026-04-26 21:50 44.72213 26.02341 20218 ft 353 kts 300°
2026-04-26 21:50 44.73380 25.99314 21099 ft 361 kts 300°
2026-04-26 21:51 44.74585 25.96184 21985 ft 367 kts 300°
2026-04-26 21:51 44.75809 25.93002 22899 ft 373 kts 299°
2026-04-26 21:51 44.77055 25.89762 23800 ft 379 kts 299°
2026-04-26 21:51 44.78316 25.86483 24523 ft 384 kts 299°
2026-04-26 21:52 44.79594 25.83154 25266 ft 388 kts 298°
2026-04-26 21:52 44.80878 25.79808 25983 ft 391 kts 298°
2026-04-26 21:52 44.82179 25.76412 26670 ft 395 kts 298°
2026-04-26 21:52 44.83489 25.72991 27315 ft 399 kts 298°
2026-04-26 21:53 44.84813 25.69530 27936 ft 403 kts 298°
2026-04-26 21:53 44.86152 25.66026 28494 ft 408 kts 297°
2026-04-26 21:53 44.87501 25.62489 29067 ft 411 kts 297°
2026-04-26 21:53 44.88861 25.58919 29595 ft 415 kts 297°
2026-04-26 21:54 44.90229 25.55325 30144 ft 418 kts 297°
2026-04-26 21:54 44.91606 25.51702 30590 ft 421 kts 297°
2026-04-26 21:54 44.92992 25.48051 30972 ft 424 kts 297°
2026-04-26 21:54 44.94388 25.44370 31334 ft 427 kts 297°
2026-04-26 21:55 44.95793 25.40660 31687 ft 430 kts 297°
2026-04-26 21:55 44.97207 25.36920 32020 ft 432 kts 297°
2026-04-26 21:55 44.98625 25.33165 32356 ft 435 kts 297°
2026-04-26 21:55 45.00049 25.29389 32671 ft 437 kts 297°
2026-04-26 21:56 45.01477 25.25597 33010 ft 438 kts 297°
2026-04-26 21:56 45.02905 25.21799 33470 ft 434 kts 297°
2026-04-26 21:56 45.04301 25.18087 33994 ft 432 kts 297°
2026-04-26 21:56 45.05720 25.14303 34548 ft 428 kts 297°
2026-04-26 21:57 45.07088 25.10650 35065 ft 424 kts 297°
2026-04-26 21:57 45.08462 25.06975 35573 ft 419 kts 297°
2026-04-26 21:57 45.09822 25.03334 36084 ft 416 kts 297°
2026-04-26 21:57 45.11169 24.99726 36624 ft 412 kts 296°
2026-04-26 21:58 45.12507 24.96135 37135 ft 409 kts 296°
2026-04-26 21:58 45.13828 24.92584 37644 ft 407 kts 296°
2026-04-26 21:58 45.15135 24.89068 38170 ft 402 kts 296°
2026-04-26 21:58 45.16423 24.85595 38729 ft 397 kts 296°
2026-04-26 21:59 45.17703 24.82143 39220 ft 392 kts 296°
2026-04-26 21:59 45.18965 24.78733 39622 ft 389 kts 296°
2026-04-26 21:59 45.20216 24.75348 39971 ft 387 kts 296°
2026-04-26 21:59 45.21469 24.71954 40173 ft 388 kts 296°
2026-04-26 22:00 45.24014 24.65045 40235 ft 402 kts 296°
2026-04-26 22:00 45.26641 24.57895 40215 ft 415 kts 296°
2026-04-26 22:01 45.29348 24.50511 40223 ft 427 kts 296°
2026-04-26 22:01 45.32116 24.42940 40220 ft 436 kts 296°
2026-04-26 22:02 45.34450 24.36540 40217 ft 441 kts 296°
2026-04-26 22:02 45.37755 24.27456 40235 ft 448 kts 296°
2026-04-26 22:03 45.40627 24.19532 40248 ft 452 kts 296°
2026-04-26 22:03 45.43514 24.11546 40256 ft 455 kts 296°
2026-04-26 22:04 45.46411 24.03507 40254 ft 457 kts 296°
2026-04-26 22:04 45.49315 23.95424 40271 ft 459 kts 296°
2026-04-26 22:05 45.52221 23.87312 40251 ft 459 kts 296°
2026-04-26 22:05 45.55125 23.79182 40282 ft 460 kts 296°
2026-04-26 22:06 45.58030 23.71024 40282 ft 461 kts 296°
2026-04-26 22:06 45.60932 23.62847 40283 ft 462 kts 296°
2026-04-26 22:07 45.63832 23.54653 40295 ft 462 kts 296°
2026-04-26 22:07 45.66239 23.47833 40281 ft 463 kts 296°
2026-04-26 22:08 45.69622 23.38218 40283 ft 463 kts 296°
2026-04-26 22:08 45.72509 23.29987 40277 ft 463 kts 296°
2026-04-26 22:09 45.75376 23.21783 40277 ft 463 kts 296°
2026-04-26 22:09 45.78275 23.13465 40273 ft 464 kts 296°
2026-04-26 22:10 45.81130 23.05247 40273 ft 464 kts 295°
2026-04-26 22:10 45.84006 22.96945 40265 ft 465 kts 295°
2026-04-26 22:11 45.86874 22.88636 40268 ft 465 kts 295°
2026-04-26 22:11 45.89737 22.80319 40269 ft 465 kts 295°
2026-04-26 22:12 45.92599 22.71978 40265 ft 465 kts 295°
2026-04-26 22:12 45.95454 22.63629 40269 ft 466 kts 295°
2026-04-26 22:13 45.97825 22.56679 40265 ft 466 kts 295°
2026-04-26 22:13 46.00673 22.48304 40258 ft 466 kts 295°
2026-04-26 22:14 46.03519 22.39907 40271 ft 467 kts 295°
2026-04-26 22:14 46.06361 22.31495 40276 ft 467 kts 295°
2026-04-26 22:15 46.09192 22.23089 40266 ft 467 kts 295°
2026-04-26 22:15 46.12026 22.14646 40254 ft 467 kts 295°
2026-04-26 22:16 46.14853 22.06199 40255 ft 468 kts 295°
2026-04-26 22:16 46.17675 21.97739 40253 ft 468 kts 295°
2026-04-26 22:17 46.20470 21.89332 40248 ft 468 kts 295°
2026-04-26 22:17 46.23298 21.80800 40267 ft 468 kts 294°
2026-04-26 22:18 46.26083 21.72366 40247 ft 468 kts 294°
2026-04-26 22:18 46.28875 21.63887 40255 ft 468 kts 294°
2026-04-26 22:19 46.31667 21.55382 40258 ft 468 kts 294°
2026-04-26 22:19 46.34450 21.46873 40262 ft 467 kts 294°
2026-04-26 22:20 46.37221 21.38373 40262 ft 467 kts 294°
2026-04-26 22:20 46.39990 21.29853 40262 ft 467 kts 294°
2026-04-26 22:21 46.42748 21.21338 40261 ft 467 kts 294°
2026-04-26 22:21 46.45500 21.12812 40258 ft 466 kts 294°
2026-04-26 22:22 46.48242 21.04290 40264 ft 466 kts 294°
2026-04-26 22:22 46.50978 20.95756 40258 ft 466 kts 294°
2026-04-26 22:23 46.53707 20.87218 40258 ft 466 kts 294°
2026-04-26 22:23 46.56429 20.78675 40258 ft 466 kts 294°
2026-04-26 22:24 46.59145 20.70118 40261 ft 466 kts 294°
2026-04-26 22:24 46.61852 20.61565 40262 ft 466 kts 294°
2026-04-26 22:25 46.64534 20.53058 40258 ft 466 kts 293°
2026-04-26 22:25 46.67227 20.44491 40259 ft 466 kts 293°
2026-04-26 22:26 46.69915 20.35910 40257 ft 466 kts 293°
2026-04-26 22:26 46.72599 20.27315 40257 ft 466 kts 293°
2026-04-26 22:27 46.75275 20.18713 40258 ft 466 kts 293°
2026-04-26 22:27 46.77944 20.10105 40263 ft 466 kts 293°
2026-04-26 22:28 46.80608 20.01483 40264 ft 466 kts 293°
2026-04-26 22:28 46.83263 19.92862 40267 ft 466 kts 293°
2026-04-26 22:29 46.85915 19.84222 40263 ft 466 kts 293°
2026-04-26 22:29 46.88558 19.75579 40263 ft 466 kts 292°
2026-04-26 22:30 46.91197 19.66923 40265 ft 466 kts 292°
2026-04-26 22:30 46.93831 19.58249 40267 ft 466 kts 292°
2026-04-26 22:31 46.96441 19.49626 40265 ft 467 kts 292°
2026-04-26 22:31 46.99067 19.40921 40264 ft 467 kts 292°
2026-04-26 22:32 47.01689 19.32199 40268 ft 467 kts 292°
2026-04-26 22:32 47.04304 19.23470 40265 ft 468 kts 292°
2026-04-26 22:33 47.08220 19.10338 40268 ft 468 kts 292°
2026-04-26 22:34 47.10811 19.01612 40269 ft 469 kts 292°
2026-04-26 22:34 47.13424 18.92777 40274 ft 469 kts 292°
2026-04-26 22:35 47.16004 18.84027 40275 ft 470 kts 292°
2026-04-26 22:35 47.18593 18.75213 40274 ft 470 kts 292°
2026-04-26 22:36 47.21178 18.66380 40274 ft 470 kts 292°
2026-04-26 22:36 47.23759 18.57531 40275 ft 471 kts 292°
2026-04-26 22:37 47.26334 18.48669 40281 ft 471 kts 292°
2026-04-26 22:37 47.28906 18.39785 40278 ft 472 kts 292°
2026-04-26 22:38 47.31480 18.30865 40280 ft 472 kts 292°
2026-04-26 22:38 47.34045 18.21939 40282 ft 473 kts 292°
2026-04-26 22:39 47.36605 18.12997 40287 ft 473 kts 292°
2026-04-26 22:39 47.39160 18.04044 40289 ft 474 kts 292°
2026-04-26 22:40 47.41711 17.95069 40293 ft 474 kts 292°
2026-04-26 22:40 47.44257 17.86081 40287 ft 475 kts 292°
2026-04-26 22:41 47.46798 17.77074 40293 ft 475 kts 292°
2026-04-26 22:41 47.49334 17.68050 40297 ft 476 kts 292°
2026-04-26 22:42 47.51867 17.59004 40293 ft 476 kts 292°
2026-04-26 22:42 47.54394 17.49946 40292 ft 476 kts 292°
2026-04-26 22:43 47.56912 17.40887 40290 ft 476 kts 292°
2026-04-26 22:43 47.59405 17.31879 40288 ft 476 kts 292°
2026-04-26 22:44 47.61910 17.22796 40287 ft 476 kts 292°
2026-04-26 22:44 47.64408 17.13706 40292 ft 476 kts 292°
2026-04-26 22:45 47.66898 17.04612 40290 ft 476 kts 292°
2026-04-26 22:45 47.69494 16.95588 40281 ft 476 kts 295°
2026-04-26 22:46 47.72338 16.86714 40292 ft 476 kts 295°
2026-04-26 22:46 47.75202 16.77858 40292 ft 476 kts 295°
2026-04-26 22:47 47.78030 16.68961 40290 ft 476 kts 295°
2026-04-26 22:47 47.80832 16.60040 40294 ft 476 kts 295°
2026-04-26 22:48 47.83625 16.51093 40292 ft 477 kts 295°
2026-04-26 22:48 47.86415 16.42128 40296 ft 477 kts 295°
2026-04-26 22:49 47.89199 16.33154 40290 ft 477 kts 295°
2026-04-26 22:49 47.91974 16.24178 40295 ft 477 kts 295°
2026-04-26 22:50 47.94741 16.15198 40294 ft 476 kts 295°
2026-04-26 22:50 47.97500 16.06210 40295 ft 476 kts 295°
2026-04-26 22:51 48.00252 15.97212 40296 ft 476 kts 295°
2026-04-26 22:51 48.02996 15.88207 40294 ft 476 kts 295°
2026-04-26 22:52 48.05732 15.79197 40295 ft 476 kts 295°
2026-04-26 22:52 48.08440 15.70247 40292 ft 476 kts 295°
2026-04-26 22:53 48.11160 15.61224 40291 ft 475 kts 295°
2026-04-26 22:53 48.13871 15.52197 40286 ft 475 kts 295°
2026-04-26 22:54 48.16573 15.43168 40286 ft 475 kts 295°
2026-04-26 22:54 48.19270 15.34123 40281 ft 475 kts 295°
2026-04-26 22:55 48.21957 15.25077 40279 ft 475 kts 295°
2026-04-26 22:55 48.24637 15.16021 40273 ft 475 kts 295°
2026-04-26 22:56 48.27308 15.06963 40299 ft 474 kts 295°
2026-04-26 22:56 48.29969 14.97906 40279 ft 474 kts 295°
2026-04-26 22:57 48.32626 14.88825 40271 ft 474 kts 295°
2026-04-26 22:57 48.35275 14.79744 40270 ft 474 kts 295°
2026-04-26 22:58 48.37919 14.70642 40264 ft 474 kts 295°
2026-04-26 22:58 48.40107 14.63081 40279 ft 474 kts 294°
2026-04-26 22:59 48.43164 14.52484 40277 ft 474 kts 294°
2026-04-26 22:59 48.45359 14.44843 40263 ft 474 kts 294°
2026-04-26 23:00 48.47961 14.35756 40276 ft 475 kts 294°
2026-04-26 23:00 48.50569 14.26614 40265 ft 475 kts 294°
2026-04-26 23:01 48.53170 14.17459 40263 ft 475 kts 294°
2026-04-26 23:01 48.55766 14.08291 40256 ft 475 kts 294°
2026-04-26 23:02 48.58355 13.99110 40260 ft 475 kts 294°
2026-04-26 23:02 48.60937 13.89919 40270 ft 475 kts 294°
2026-04-26 23:03 48.63509 13.80725 40265 ft 475 kts 294°
2026-04-26 23:03 48.66079 13.71506 40268 ft 475 kts 294°
2026-04-26 23:04 48.68640 13.62281 40259 ft 475 kts 294°
2026-04-26 23:04 48.71194 13.53047 40263 ft 475 kts 294°
2026-04-26 23:05 48.73741 13.43803 40258 ft 475 kts 294°
2026-04-26 23:05 48.76262 13.34618 40269 ft 475 kts 294°
2026-04-26 23:06 48.78791 13.25367 40273 ft 475 kts 294°
2026-04-26 23:06 48.81311 13.16109 40260 ft 475 kts 294°
2026-04-26 23:07 48.83826 13.06836 40263 ft 475 kts 294°
2026-04-26 23:07 48.86334 12.97553 40262 ft 475 kts 294°
2026-04-26 23:08 48.88837 12.88251 40264 ft 475 kts 294°
2026-04-26 23:08 48.91332 12.78941 40259 ft 476 kts 294°
2026-04-26 23:09 48.93804 12.69680 40259 ft 476 kts 293°
2026-04-26 23:09 48.96285 12.60346 40256 ft 476 kts 293°
2026-04-26 23:10 48.98760 12.51000 40262 ft 476 kts 293°
2026-04-26 23:10 49.01229 12.41638 40260 ft 476 kts 293°
2026-04-26 23:11 49.03690 12.32269 40260 ft 476 kts 293°
2026-04-26 23:11 49.06144 12.22885 40265 ft 477 kts 293°
2026-04-26 23:12 49.08595 12.13478 40260 ft 477 kts 293°
2026-04-26 23:12 49.11037 12.04065 40265 ft 477 kts 293°
2026-04-26 23:13 49.13473 11.94634 40267 ft 477 kts 293°
2026-04-26 23:13 49.15903 11.85191 40268 ft 478 kts 293°
2026-04-26 23:14 49.18326 11.75736 40268 ft 478 kts 293°
2026-04-26 23:14 49.20740 11.66274 40270 ft 478 kts 293°
2026-04-26 23:15 49.23149 11.56794 40268 ft 478 kts 292°
2026-04-26 23:15 49.25551 11.47299 40279 ft 478 kts 292°
2026-04-26 23:16 49.27947 11.37791 40285 ft 479 kts 292°
2026-04-26 23:16 49.30336 11.28268 40277 ft 479 kts 292°
2026-04-26 23:17 49.32702 11.18798 40276 ft 479 kts 292°
2026-04-26 23:17 49.35078 11.09248 40271 ft 479 kts 292°
2026-04-26 23:18 49.37446 10.99692 40272 ft 479 kts 292°
2026-04-26 23:18 49.39840 10.90142 40274 ft 479 kts 294°
2026-04-26 23:19 49.42433 10.80720 40270 ft 479 kts 295°
2026-04-26 23:19 49.45069 10.71316 40272 ft 479 kts 294°
2026-04-26 23:20 49.47675 10.61882 40269 ft 479 kts 294°
2026-04-26 23:20 49.50257 10.52417 40268 ft 480 kts 294°
2026-04-26 23:21 49.52822 10.42943 40265 ft 480 kts 294°
2026-04-26 23:21 49.55381 10.33454 40266 ft 480 kts 294°
2026-04-26 23:22 49.57937 10.23947 40271 ft 480 kts 294°
2026-04-26 23:22 49.60486 10.14425 40269 ft 481 kts 294°
2026-04-26 23:23 49.63029 10.04888 40256 ft 481 kts 294°
2026-04-26 23:23 49.65565 9.95337 40255 ft 481 kts 293°
2026-04-26 23:24 49.68095 9.85771 40256 ft 481 kts 293°
2026-04-26 23:24 49.70602 9.76251 40254 ft 482 kts 293°
2026-04-26 23:25 49.73120 9.66650 40256 ft 482 kts 293°
2026-04-26 23:25 49.75629 9.57042 40252 ft 482 kts 293°
2026-04-26 23:26 49.78136 9.47403 40257 ft 483 kts 293°
2026-04-26 23:26 49.80634 9.37756 40254 ft 483 kts 293°
2026-04-26 23:27 49.83121 9.28108 40258 ft 483 kts 292°
2026-04-26 23:27 49.85605 9.18434 40257 ft 483 kts 292°
2026-04-26 23:28 49.88081 9.08750 40262 ft 483 kts 293°
2026-04-26 23:28 49.90553 8.99040 40259 ft 484 kts 292°
2026-04-26 23:29 49.92978 8.89472 40259 ft 485 kts 292°
2026-04-26 23:29 49.95438 8.79727 40264 ft 485 kts 292°
2026-04-26 23:30 49.97887 8.69980 40266 ft 485 kts 292°
2026-04-26 23:30 50.00316 8.60274 40264 ft 485 kts 292°
2026-04-26 23:31 50.02751 8.50499 40264 ft 485 kts 292°
2026-04-26 23:31 50.05180 8.40707 40264 ft 485 kts 292°
2026-04-26 23:32 50.07601 8.30900 40271 ft 485 kts 292°
2026-04-26 23:32 50.10013 8.21091 40264 ft 485 kts 292°
2026-04-26 23:33 50.12420 8.11258 40271 ft 485 kts 291°
2026-04-26 23:33 50.14816 8.01423 40265 ft 486 kts 291°
2026-04-26 23:34 50.17207 7.91566 40271 ft 485 kts 291°
2026-04-26 23:34 50.19587 7.81710 40264 ft 486 kts 291°
2026-04-26 23:35 50.21947 7.71894 40268 ft 486 kts 291°
2026-04-26 23:35 50.24311 7.62017 40271 ft 486 kts 291°
2026-04-26 23:36 50.26667 7.52128 40263 ft 486 kts 291°
2026-04-26 23:36 50.29015 7.42228 40265 ft 486 kts 291°
2026-04-26 23:37 50.31354 7.32318 40266 ft 485 kts 291°
2026-04-26 23:37 50.33687 7.22390 40264 ft 485 kts 291°
2026-04-26 23:38 50.36010 7.12462 40265 ft 485 kts 291°
2026-04-26 23:38 50.38320 7.02537 40260 ft 485 kts 291°
2026-04-26 23:39 50.40621 6.92609 40258 ft 485 kts 290°
2026-04-26 23:39 50.42915 6.82665 40259 ft 485 kts 290°
2026-04-26 23:40 50.45199 6.72718 40263 ft 485 kts 290°
2026-04-26 23:40 50.47473 6.62768 40270 ft 484 kts 290°
2026-04-26 23:41 50.49740 6.52800 40270 ft 484 kts 290°
2026-04-26 23:41 50.51996 6.42833 40261 ft 484 kts 290°
2026-04-26 23:42 50.54230 6.32921 40280 ft 484 kts 290°
2026-04-26 23:42 50.57586 6.17937 40284 ft 484 kts 290°
2026-04-26 23:43 50.59814 6.07930 40284 ft 484 kts 290°
2026-04-26 23:43 50.62031 5.97921 40285 ft 484 kts 289°
2026-04-26 23:44 50.64243 5.87896 40283 ft 484 kts 289°
2026-04-26 23:44 50.66732 5.78042 40274 ft 484 kts 294°
2026-04-26 23:45 50.69036 5.70011 40296 ft 484 kts 294°
2026-04-26 23:45 50.72284 5.58706 40292 ft 484 kts 294°
2026-04-26 23:46 50.74563 5.50645 40297 ft 484 kts 294°
2026-04-26 23:46 50.77282 5.40920 40290 ft 484 kts 294°
2026-04-26 23:47 50.79990 5.31177 40291 ft 484 kts 294°
2026-04-26 23:47 50.82687 5.21434 40288 ft 484 kts 293°
2026-04-26 23:48 50.85383 5.11662 40284 ft 484 kts 293°
2026-04-26 23:48 50.88070 5.01882 40285 ft 484 kts 293°
2026-04-26 23:49 50.90187 4.91832 40294 ft 482 kts 280°
2026-04-26 23:49 50.90951 4.81271 40291 ft 483 kts 276°
2026-04-26 23:50 50.91607 4.70667 40292 ft 484 kts 277°
2026-04-26 23:50 50.92462 4.60087 40291 ft 484 kts 278°
2026-04-26 23:51 50.93425 4.49523 40292 ft 484 kts 278°
2026-04-26 23:51 50.94402 4.38962 40293 ft 484 kts 278°
2026-04-26 23:52 50.95361 4.28388 40294 ft 484 kts 278°
2026-04-26 23:52 50.96298 4.17867 40292 ft 484 kts 278°
2026-04-26 23:53 50.97228 4.07282 40282 ft 485 kts 278°
2026-04-26 23:53 50.98149 3.96697 40280 ft 485 kts 278°
2026-04-26 23:54 50.99061 3.86099 40284 ft 485 kts 278°
2026-04-26 23:54 50.99964 3.75490 40280 ft 485 kts 277°
2026-04-26 23:55 51.00857 3.64884 40282 ft 485 kts 277°
2026-04-26 23:55 51.01741 3.54269 40286 ft 485 kts 277°
2026-04-26 23:56 51.02616 3.43643 40281 ft 485 kts 277°
2026-04-26 23:56 51.03481 3.33018 40287 ft 485 kts 277°
2026-04-26 23:57 51.04336 3.22389 40287 ft 485 kts 277°
2026-04-26 23:57 51.05181 3.11753 40290 ft 485 kts 277°
2026-04-26 23:58 51.05602 3.06419 40075 ft 488 kts 277°
2026-04-26 23:58 51.06018 3.01111 40164 ft 476 kts 277°
2026-04-26 23:58 51.06418 2.95969 40290 ft 461 kts 277°
2026-04-26 23:58 51.06808 2.90945 39826 ft 458 kts 276°
2026-04-26 23:59 51.07200 2.85839 39326 ft 469 kts 276°
2026-04-26 23:59 51.07587 2.80786 38702 ft 462 kts 276°
2026-04-26 23:59 51.07969 2.75760 38003 ft 455 kts 276°
2026-04-26 23:59 51.08344 2.70802 37330 ft 448 kts 276°
2026-04-27 00:00 51.08712 2.65908 36668 ft 442 kts 276°
2026-04-27 00:00 51.09073 2.61086 36033 ft 437 kts 276°
2026-04-27 00:00 51.09427 2.56317 35409 ft 432 kts 276°
2026-04-27 00:00 51.09777 2.51594 34807 ft 427 kts 277°
2026-04-27 00:01 51.10120 2.46926 34197 ft 423 kts 277°
2026-04-27 00:01 51.10458 2.42305 33513 ft 419 kts 276°
2026-04-27 00:01 51.10792 2.37714 32836 ft 416 kts 276°
2026-04-27 00:01 51.11121 2.33162 32189 ft 413 kts 276°
2026-04-27 00:02 51.11447 2.28641 31556 ft 410 kts 276°
2026-04-27 00:02 51.11767 2.24164 30937 ft 407 kts 276°
2026-04-27 00:02 51.12085 2.19694 30316 ft 405 kts 276°
2026-04-27 00:02 51.12399 2.15256 29614 ft 402 kts 276°
2026-04-27 00:03 51.12709 2.10852 28929 ft 399 kts 276°
2026-04-27 00:03 51.13016 2.06466 28256 ft 397 kts 276°
2026-04-27 00:03 51.13319 2.02118 27600 ft 394 kts 276°
2026-04-27 00:03 51.13619 1.97783 26957 ft 392 kts 276°
2026-04-27 00:04 51.13915 1.93484 26339 ft 390 kts 276°
2026-04-27 00:04 51.14196 1.89380 25752 ft 388 kts 276°
2026-04-27 00:04 51.14448 1.85682 25232 ft 387 kts 276°
2026-04-27 00:04 51.14737 1.81421 24643 ft 385 kts 276°
2026-04-27 00:05 51.15022 1.77202 24065 ft 383 kts 276°
2026-04-27 00:05 51.15304 1.72994 23425 ft 381 kts 276°
2026-04-27 00:05 51.15585 1.68784 22749 ft 380 kts 276°
2026-04-27 00:05 51.15858 1.64674 22106 ft 378 kts 276°
2026-04-27 00:06 51.16133 1.60514 21471 ft 377 kts 276°
2026-04-27 00:06 51.16404 1.56373 20842 ft 375 kts 276°
2026-04-27 00:06 51.16674 1.52250 20248 ft 373 kts 276°
2026-04-27 00:06 51.16941 1.48154 19729 ft 370 kts 275°
2026-04-27 00:07 51.17202 1.44101 19254 ft 366 kts 275°
2026-04-27 00:07 51.17378 1.40039 18775 ft 361 kts 269°
2026-04-27 00:07 51.17192 1.36122 18257 ft 357 kts 264°
2026-04-27 00:07 51.16904 1.32205 17729 ft 354 kts 263°
2026-04-27 00:08 51.16638 1.28316 17210 ft 352 kts 264°
2026-04-27 00:08 51.16379 1.24455 16694 ft 349 kts 264°
2026-04-27 00:08 51.16124 1.20626 16193 ft 347 kts 264°
2026-04-27 00:08 51.15871 1.16823 15695 ft 344 kts 264°
2026-04-27 00:09 51.15620 1.13043 15204 ft 342 kts 264°
2026-04-27 00:09 51.15370 1.09284 14713 ft 340 kts 264°
2026-04-27 00:09 51.15190 1.05569 14222 ft 332 kts 271°
2026-04-27 00:09 51.15525 1.01940 13708 ft 331 kts 282°
2026-04-27 00:10 51.16091 0.98403 13187 ft 329 kts 284°
2026-04-27 00:10 51.16700 0.94897 12674 ft 328 kts 285°
2026-04-27 00:10 51.17312 0.91407 12167 ft 326 kts 285°
2026-04-27 00:10 51.17921 0.87929 11666 ft 325 kts 285°
2026-04-27 00:11 51.18523 0.84477 11175 ft 324 kts 285°
2026-04-27 00:11 51.19122 0.81013 10661 ft 323 kts 285°
2026-04-27 00:11 51.19711 0.77571 10190 ft 321 kts 285°
2026-04-27 00:11 51.20291 0.74138 9645 ft 320 kts 285°
2026-04-27 00:12 51.20867 0.70710 9138 ft 319 kts 285°
2026-04-27 00:12 51.21436 0.67300 8609 ft 318 kts 285°
2026-04-27 00:12 51.22000 0.63902 8111 ft 316 kts 285°
2026-04-27 00:12 51.22555 0.60538 7717 ft 311 kts 285°
2026-04-27 00:13 51.23099 0.57231 7383 ft 306 kts 285°
2026-04-27 00:13 51.23631 0.53984 7122 ft 298 kts 285°
2026-04-27 00:13 51.24147 0.50829 6872 ft 291 kts 285°
2026-04-27 00:13 51.24648 0.47747 6626 ft 287 kts 285°
2026-04-27 00:14 51.25153 0.44636 6368 ft 288 kts 285°
2026-04-27 00:14 51.25655 0.41538 6111 ft 289 kts 285°
2026-04-27 00:14 51.26158 0.38434 5772 ft 289 kts 284°
2026-04-27 00:14 51.26677 0.35332 5524 ft 289 kts 285°
2026-04-27 00:15 51.27200 0.32236 5280 ft 289 kts 285°
2026-04-27 00:15 51.27725 0.29140 5024 ft 288 kts 285°
2026-04-27 00:15 51.28249 0.26053 4782 ft 288 kts 285°
2026-04-27 00:15 51.28773 0.22969 4527 ft 287 kts 285°
2026-04-27 00:16 51.29296 0.19889 4284 ft 286 kts 285°
2026-04-27 00:16 51.29813 0.16837 4029 ft 285 kts 285°
2026-04-27 00:16 51.30330 0.13787 3782 ft 283 kts 285°
2026-04-27 00:16 51.30826 0.10859 3534 ft 281 kts 285°
2026-04-27 00:17 51.31268 0.08250 3315 ft 279 kts 285°
2026-04-27 00:17 51.31773 0.05265 3061 ft 278 kts 285°
2026-04-27 00:17 51.32271 0.02323 2819 ft 277 kts 285°
2026-04-27 00:17 51.32779 -0.00688 2565 ft 277 kts 285°
2026-04-27 00:18 51.33273 -0.03611 2322 ft 276 kts 285°
2026-04-27 00:18 51.33777 -0.06597 2106 ft 273 kts 285°
2026-04-27 00:18 51.34261 -0.09470 2053 ft 270 kts 285°
2026-04-27 00:18 51.34751 -0.12373 2004 ft 270 kts 286°
2026-04-27 00:19 51.35637 -0.14963 1991 ft 264 kts 316°
2026-04-27 00:19 51.37207 -0.16222 1991 ft 249 kts 353°
2026-04-27 00:19 51.38833 -0.15736 1999 ft 233 kts 29°
2026-04-27 00:19 51.40136 -0.14409 2035 ft 214 kts 30°
2026-04-27 00:20 51.41404 -0.13348 1995 ft 196 kts 24°
2026-04-27 00:20 51.42608 -0.12564 1978 ft 177 kts 19°
2026-04-27 00:20 51.43729 -0.11947 1997 ft 167 kts 17°
2026-04-27 00:20 51.44828 -0.11399 2009 ft 164 kts 16°
2026-04-27 00:21 51.45919 -0.10886 2004 ft 165 kts 15°
2026-04-27 00:21 51.47028 -0.10381 2001 ft 165 kts 15°
2026-04-27 00:21 51.48132 -0.09889 1996 ft 162 kts 14°
2026-04-27 00:21 51.49176 -0.09413 1984 ft 150 kts 19°
2026-04-27 00:22 51.49991 -0.08465 2006 ft 147 kts 47°
2026-04-27 00:22 51.50590 -0.07139 2014 ft 145 kts 60°
2026-04-27 00:22 51.50851 -0.05610 1993 ft 143 kts 92°
2026-04-27 00:22 51.50776 -0.04020 1964 ft 148 kts 91°
2026-04-27 00:23 51.50771 -0.02360 1533 ft 142 kts 92°
2026-04-27 00:23 51.50724 -0.00867 1201 ft 130 kts 93°
2026-04-27 00:23 51.50682 0.00459 912 ft 124 kts 93°
2026-04-27 00:23 51.50643 0.01708 658 ft 124 kts 93°
2026-04-27 00:24 51.50600 0.03065 364 ft 124 kts 93°
2026-04-27 00:24 51.50557 0.04431 64 ft 123 kts 93°
2026-04-27 00:24 51.50520 0.05558 29 ft 63 kts 93°
2026-04-27 00:24 51.50504 0.06070 29 ft 30 kts 93°
2026-04-27 00:25 51.50487 0.06283 33 ft 10 kts 120°
2026-04-27 00:25 51.50439 0.06366 34 ft 10 kts 118°
2026-04-27 00:25 51.50426 0.06441 33 ft 0 kts 96°
2026-04-27 00:28 51.50426 0.06444 33 ft 0 kts 95°
2026-04-27 00:29 51.50425 0.06460 33 ft 2 kts 96°
2026-04-27 00:29 51.50424 0.06478 33 ft 3 kts 95°
2026-04-27 00:30 51.50423 0.06515 33 ft 4 kts 91°
2026-04-27 00:30 51.50441 0.06563 33 ft 4 kts 34°
2026-04-27 00:30 51.50468 0.06559 35 ft 4 kts 330°
2026-04-27 00:30 51.50478 0.06535 35 ft 4 kts 296°
2026-04-27 00:31 51.50485 0.06484 34 ft 5 kts 278°
2026-04-27 00:31 51.50490 0.06425 34 ft 6 kts 277°
2026-04-27 00:31 51.50493 0.06359 34 ft 6 kts 273°
2026-04-27 00:31 51.50496 0.06284 33 ft 8 kts 273°
2026-04-27 00:32 51.50499 0.06187 31 ft 10 kts 273°
2026-04-27 00:32 51.50502 0.06072 29 ft 13 kts 273°
2026-04-27 00:32 51.50507 0.05925 28 ft 13 kts 273°
2026-04-27 00:32 51.50511 0.05777 28 ft 13 kts 272°
2026-04-27 00:33 51.50516 0.05626 28 ft 13 kts 273°
2026-04-27 00:33 51.50521 0.05476 30 ft 13 kts 273°
2026-04-27 00:33 51.50497 0.05336 32 ft 13 kts 233°
2026-04-27 00:33 51.50454 0.05206 33 ft 13 kts 263°
2026-04-27 00:34 51.50458 0.05056 32 ft 14 kts 277°
2026-04-27 00:34 51.50456 0.04992 33 ft 0 kts 227°